Location: Ocean City
(38.3360°N, 75.0850°W)
Time: 19:05:56
(UTC-04:00)

MOZHAYETS 4 - Pass Details

Date: 24 May 2019
Orbit: 661 x 681 km, 98.0° (Epoch: 18 June)

Event Time Altitude Azimuth Distance (km) Brightness Sun altitude
Exits shadow 02:26:58 26° 103° (ESE) 1,318 9.3 -27.3°
Maximum altitude 02:28:23 31° 70° (ENE) 1,168 9.3 -27.2°
Drops below altitude 10° 02:32:26 10° 8° (N) 2,110 11.2 -26.8°
Sets 02:34:51 0° 359° (N) 3,024 12.1 -26.6°
